Location: Newark
(34.0635°N, 86.7609°W)
Time: 19:07:12
(UTC+00:00)

N. Korean satellite - Pass Details

Date: 17 December 2019
Orbit: 454 x 507 km, 97.2° (Epoch: 28 January)

Event Time Altitude Azimuth Distance (km) Brightness Sun altitude
Rises 00:00:05 0° 213° (SSW) 2,594 11.1 -16.2°
Reaches altitude 10° 00:03:35 10° 249° (WSW) 1,711 10.7 -16.9°
Maximum altitude 00:04:44 11° 267° (W) 1,636 10.4 -17.1°
Drops below altitude 10° 00:05:53 10° 285° (WNW) 1,709 10.2 -17.4°
Sets 00:09:23 0° 322° (NW) 2,588 10.6 -18.1°
